SCP
2 1 1 1 1 0 0 0 0 0 0 0 0 0 0 0 0 0 0 0 0 0 0 1 1 1 1 1 1 1 1 1 1 1 1 1 1 1 0 0 0 0 1 1 0 0 0 0 0
1 1 1 1 1 0 0 0 0 0 0 0 0 0 0 0 0 0 0 0 0 0 0 1 1 1 1 1 1 1 1 1 1 1 1 1 1 1 0 0 0 1 1 1 0 0 0 0 0
1 1 1 1 0 0 0 0 0 0 0 0 0 0 0 0 0 0 0 0 0 0 0 1 1 1 1 1 1 1 1 1 1 1 1 1 1 1 0 0 1 1 1 1 1 1 1 0 0
1 1 1 1 0 0 0 0 0 0 0 0 0 0 0 0 0 0 0 0 0 0 0 1 1 1 1 1 1 1 1 1 1 1 1 1 1 1 1 1 1 1 1 1 1 1 1 0 0
1 1 1 1 0 0 0 0 1 1 0 0 0 0 0 0 0 1 1 0 0 0 0 1 1 1 1 1 1 1 1 1 2 2 1 1 1 1 1 1 1 1 1 1 1 1 1 1 0
2 2 2 1 0 0 0 0 1 1 1 0 0 0 0 0 1 1 1 1 0 0 0 1 1 1 1 1 1 1 2 2 2 2 2 2 1 1 1 1 1 1 1 1 1 1 1 1 0
2 2 2 1 0 0 0 0 0 1 1 0 0 0 0 0 1 1 1 1 0 0 1 1 1 1 1 1 1 1 2 2 2 2 2 2 1 1 1 1 1 1 1 1 1 1 1 1 1
3 2 1 1 0 0 0 0 0 1 1 0 0 0 1 1 1 1 1 1 1 0 1 1 1 1 1 1 1 1 2 2 2 2 2 2 1 1 1 1 1 1 1 1 1 1 1 1 1
2 2 1 0 0 0 0 0 0 1 1 0 0 1 1 1 1 1 1 1 1 1 1 1 1 1 1 1 1 1 1 2 2 2 2 1 1 1 1 1 1 1 1 1 1 1 1 1 0
2 1 0 0 0 0 0 0 0 1 1 0 1 1 1 1 1 1 0 0 1 1 1 1 1 1 1 1 1 1 1 1 1 1 1 1 1 1 1 1 1 1 2 2 2 2 1 1 1
1 1 0 0 0 0 0 0 0 1 1 1 1 1 2 2 1 1 0 1 1 1 1 1 1 1 0 0 0 0 0 1 1 1 1 1 1 1 1 1 1 1 2 3 3 3 2 1 1
1 0 0 0 0 0 0 0 0 1 1 1 1 1 2 2 2 1 1 1 1 1 1 1 1 1 1 0 0 0 0 0 1 1 0 0 0 0 1 1 1 1 1 2 2 2 2 1 1
1 0 0 0 0 0 0 0 0 1 1 1 1 1 2 3 2 1 1 1 1 1 1 1 1 1 1 1 1 1 0 1 1 1 0 0 0 0 0 0 0 0 0 1 1 1 1 1 1
0 0 0 0 0 0 0 0 0 1 1 1 1 2 3 3 1 1 1 1 1 1 1 1 1 1 1 1 1 1 1 1 1 1 0 0 0 0 0 0 0 0 0 0 0 0 1 1 1
0 0 0 0 0 0 0 0 0 1 1 1 1 2 3 2 1 1 1 1 1 1 1 1 1 1 1 1 1 1 1 1 1 1 0 0 0 0 0 0 0 0 0 0 1 1 1 1 1
0 0 0 0 0 0 0 0 1 1 1 1 2 2 2 2 1 1 1 1 1 1 1 1 1 1 1 1 1 1 1 1 1 1 0 0 0 0 0 0 0 0 1 1 1 1 1 2 2
0 0 0 0 0 0 0 1 1 1 1 1 2 2 2 2 1 1 1 1 1 1 2 2 1 1 1 1 1 1 1 1 1 1 1 0 0 0 0 1 1 1 1 1 1 1 2 2 2
0 0 0 0 0 0 0 1 1 1 1 1 2 2 2 2 1 1 1 2 2 2 2 2 2 2 2 1 1 1 1 1 1 1 1 1 0 1 1 1 1 1 1 1 1 1 1 2 2
0 0 0 0 0 0 0 1 1 1 1 2 2 3 3 3 2 2 2 2 3 3 3 3 2 2 2 2 2 2 1 1 1 1 1 1 1 1 1 1 1 1 1 1 1 1 1 1 1
0 0 0 0 0 0 1 1 1 1 1 2 3 4 4 3 3 3 3 3 3 4 3 3 3 3 3 3 2 2 2 1 1 1 1 1 1 1 1 1 1 1 1 1 1 1 1 1 1
0 0 1 0 0 0 1 1 1 1 1 1 2 4 5 4 3 3 2 4 5 5 4 4 5 5 5 5 5 5 4 3 2 2 1 1 1 1 1 1 1 1 1 1 1 1 1 1 1
0 0 1 1 0 0 0 0 0 1 1 1 2 3 5 4 4 3 3 4 6 6 5 5 6 8 9 9 9 8 7 6 4 2 1 1 1 1 1 1 1 1 1 1 1 1 1 1 1
0 0 1 0 0 0 0 0 0 1 1 1 2 3 4 5 4 4 3 4 5 5 5 6 7 10 12 14 14 12 10 8 6 4 2 1 1 2 2 1 1 1 1 1 1 1 1 1 1
0 0 0 0 0 0 0 0 0 1 1 1 2 3 4 5 5 6 6 5 5 4 5 6 7 9 13 16 17 15 10 8 7 5 3 2 2 2 2 1 1 1 1 2 2 2 2 1 1
0 0 0 0 0 0 0 0 0 1 1 1 2 2 3 5 6 8 8 7 6 5 5 5 6 8 12 15 17 16 12 9 7 5 3 3 3 3 2 1 1 1 2 2 2 2 2 1 0
0 0 0 0 0 0 0 0 1 1 1 2 2 2 3 4 6 7 7 6 5 6 6 6 5 6 8 12 14 14 11 9 7 5 4 3 3 2 2 1 1 1 2 2 2 2 1 0 0
0 0 0 0 0 0 0 0 1 1 1 2 2 3 3 4 5 6 5 5 4 5 6 6 5 4 5 7 9 9 8 7 6 4 3 3 2 2 1 1 1 1 2 2 2 1 1 0 0
0 0 0 0 0 0 0 0 1 1 2 2 4 4 4 4 5 5 5 5 4 5 5 5 5 4 4 4 5 5 4 4 4 3 3 2 2 1 1 1 1 1 1 2 2 1 0 0 0
0 0 0 0 0 0 0 1 1 2 2 3 4 4 4 4 5 5 6 5 5 5 5 5 5 5 4 3 3 3 2 2 2 2 2 2 1 1 1 1 1 1 1 1 1 1 1 1 1
0 0 0 0 0 0 0 1 2 3 3 3 4 4 4 4 4 5 6 6 5 5 5 5 5 5 5 4 3 2 2 2 2 2 2 1 1 1 1 1 1 1 1 1 1 1 1 1 1
Wind_Speed
10 7 3 1 3 4 3 3 6 6 6 7 9 9 8 6 4 4 3 8 8 6 5 7 9 9 10 10 10 11 11 11 11 12 12 12 12 13 13 13 13 14 14 14 14 14 14 14 14
7 5 1 2 4 4 3 4 8 9 10 11 11 10 8 6 5 6 4 7 8 7 5 6 9 10 10 10 10 10 11 11 11 12 12 12 12 12 13 13 13 14 14 14 14 14 14 13 12
7 3 2 3 2 4 4 5 9 11 10 8 7 6 5 5 5 4 5 8 7 6 4 6 10 10 10 9 9 10 11 11 11 12 12 12 12 12 13 13 13 14 14 14 14 13 13 12 11
3 2 2 3 4 3 7 8 10 11 9 8 8 7 4 4 4 6 9 9 8 5 4 6 10 10 9 9 9 10 11 11 11 12 11 11 12 12 13 13 13 13 13 13 13 12 12 11 11
1 2 3 3 4 5 8 11 11 10 6 9 10 8 5 4 8 10 10 9 8 6 4 5 9 9 9 9 10 11 11 11 11 12 11 11 12 12 13 12 12 12 12 12 12 11 10 10 10
2 2 3 3 6 7 7 10 12 14 13 11 10 8 4 7 11 10 10 8 7 7 5 5 9 10 9 10 10 11 10 10 11 12 12 12 12 12 12 12 12 12 11 11 10 10 9 8 8
3 2 3 5 7 7 7 8 10 12 11 8 7 6 4 7 9 10 9 8 6 6 6 4 4 6 9 9 9 11 10 11 11 11 12 12 12 12 11 11 11 11 10 10 9 9 8 6 6
4 3 2 3 7 7 7 8 9 12 9 10 7 7 6 7 9 10 9 7 7 6 5 4 4 3 3 4 9 11 11 11 11 10 11 12 12 11 11 10 10 10 9 9 9 8 7 5 4
3 4 2 4 7 7 10 12 8 9 11 7 6 8 9 11 10 10 8 6 6 6 4 4 3 3 3 3 6 8 9 10 9 8 10 9 5 5 6 8 9 9 9 8 7 7 6 4 4
4 4 5 5 7 10 12 13 9 8 11 10 10 10 10 10 10 10 10 8 7 6 5 4 4 3 3 3 3 2 3 3 3 3 4 3 3 3 5 6 8 9 8 7 6 6 4 3 2
4 5 4 4 8 11 11 10 8 11 9 12 14 13 10 10 9 9 9 9 7 7 6 5 5 4 4 2 3 2 2 2 2 3 3 3 3 2 2 2 3 4 4 3 3 2 1 2 2
4 3 5 6 8 10 10 9 8 8 10 14 14 13 10 10 9 9 9 8 7 7 6 6 5 4 4 3 3 3 2 2 2 2 3 3 2 2 2 2 2 2 1 2 2 1 2 2 2
4 3 5 7 10 11 12 11 10 8 12 13 14 12 10 10 9 8 8 8 7 7 6 6 5 5 4 3 2 3 2 2 2 2 2 3 3 3 2 2 2 2 2 2 2 2 2 3 3
3 4 4 7 9 10 14 9 8 10 13 14 13 11 10 10 9 8 8 8 7 7 7 6 5 5 5 4 3 3 3 3 2 2 3 3 3 3 3 3 2 2 2 2 2 3 3 2 3
4 5 4 3 7 7 11 6 8 13 13 13 12 11 11 10 10 10 10 9 8 8 7 7 6 5 5 4 4 3 3 3 2 2 2 3 3 3 3 2 2 1 1 2 2 2 2 3 3
4 4 2 1 5 5 8 6 7 11 13 12 11 11 10 9 10 9 10 9 8 8 7 7 7 6 5 4 3 3 3 3 2 2 2 3 3 3 3 3 2 1 1 2 2 2 3 2 3
4 2 1 1 2 4 5 5 7 9 12 11 11 11 10 9 8 8 10 10 9 9 8 6 6 6 5 4 3 3 3 2 2 2 2 2 3 3 3 2 1 1 2 2 2 2 3 3 3
4 2 2 3 2 4 3 4 9 9 10 10 10 9 10 11 9 9 9 10 9 8 8 7 6 5 4 3 3 3 2 2 2 2 2 3 2 2 2 2 2 2 2 2 2 3 3 3 3
7 5 4 3 3 4 3 5 8 8 9 9 8 9 10 10 9 9 9 10 9 8 8 7 6 5 4 3 3 2 2 1 1 1 2 3 2 2 2 2 2 2 2 2 3 3 3 2 3
6 4 3 2 2 4 3 4 6 8 11 12 11 11 11 10 8 9 9 9 9 8 8 7 7 6 5 3 3 3 3 2 2 1 2 3 3 3 3 3 2 2 2 2 3 3 3 1 2
5 7 7 5 2 3 4 2 3 4 5 9 10 11 12 13 13 12 10 9 9 9 9 8 7 7 6 5 3 2 2 2 1 1 1 1 2 2 2 3 2 2 3 3 3 3 4 2 1
5 7 8 8 6 1 3 2 4 4 5 9 10 10 12 12 12 12 11 11 11 9 8 7 7 7 6 5 5 4 4 2 2 2 1 1 2 2 2 2 2 2 2 2 2 2 2 3 2
6 6 6 6 5 3 2 3 5 4 6 9 11 13 13 12 13 13 12 12 10 10 8 7 7 6 6 5 6 4 3 3 2 2 2 1 1 1 2 2 2 2 2 2 2 2 2 2 2
4 5 6 5 5 2 3 3 6 6 10 10 11 13 12 12 12 11 10 9 8 9 8 7 7 6 6 6 5 5 5 4 4 3 3 1 1 1 1 2 2 2 2 2 2 2 2 2 2
5 7 4 4 3 4 3 2 8 7 7 10 12 12 12 12 12 12 11 11 10 10 9 8 8 6 6 7 6 6 6 6 5 4 4 3 1 1 1 1 1 1 2 2 2 2 2 2 2
3 9 8 5 5 3 2 3 7 5 6 6 7 9 10 10 10 12 13 12 11 12 11 9 9 7 6 6 6 5 5 4 3 4 3 3 3 2 2 2 2 2 2 2 2 1 2 1 2
3 3 8 8 3 2 3 4 6 0 2 3 5 8 10 11 11 12 12 12 12 12 11 10 9 7 6 6 6 5 5 5 4 4 3 3 2 2 2 2 2 2 2 2 2 1 1 1 1
6 7 6 6 5 2 2 3 4 2 3 3 5 8 9 9 10 11 11 11 10 11 10 9 9 8 7 7 6 6 5 4 5 4 4 3 3 2 2 2 2 2 1 1 2 1 1 1 0
1 2 5 5 6 7 4 7 7 8 7 5 4 6 9 10 10 10 9 9 10 9 10 9 9 7 7 6 6 5 5 5 4 4 4 4 3 3 3 3 2 2 1 1 2 1 1 1 0
5 6 7 5 3 5 5 7 4 7 6 6 5 3 5 8 9 9 8 8 9 10 10 10 9 8 7 6 5 5 5 5 5 5 4 4 4 3 3 3 2 2 2 1 2 2 1 1 1
Wind_Direction
168 159 149 118 55 55 76 79 96 82 67 69 77 83 83 68 98 135 170 145 140 141 140 128 118 114 109 106 105 109 109 110 110 110 112 115 115 115 115 115 115 116 116 116 117 119 119 119 120
159 156 132 57 78 79 71 99 96 96 115 106 82 80 74 67 82 109 131 145 136 135 134 124 121 116 113 111 111 113 115 114 113 114 116 119 121 120 118 118 117 117 117 117 118 119 120 121 123
166 164 93 67 96 126 124 120 110 106 107 99 91 67 65 96 102 116 143 138 126 126 126 129 120 119 117 117 117 118 120 119 118 117 118 121 124 121 118 119 119 119 119 120 120 120 121 122 125
152 106 61 80 108 124 124 120 115 108 89 78 92 74 63 98 117 132 134 131 124 125 127 130 122 121 120 122 123 122 121 123 122 122 122 123 124 123 121 122 122 121 121 122 123 123 124 124 126
110 99 70 88 107 104 110 115 113 102 92 91 95 98 89 93 120 128 133 134 130 130 128 128 127 124 123 123 125 124 122 122 123 127 128 125 125 125 124 124 124 124 124 125 126 127 127 127 126
93 79 82 104 104 100 106 112 104 101 108 106 102 105 100 127 130 136 138 140 139 137 133 131 134 130 125 124 126 128 124 123 122 126 130 127 127 126 126 127 128 127 128 129 130 130 131 132 130
128 107 126 122 109 107 116 113 110 116 119 117 118 100 113 132 144 143 140 138 133 132 128 125 133 132 131 127 129 133 128 127 125 125 129 130 131 131 130 130 132 133 135 137 136 137 139 139 136
165 100 85 109 114 113 118 102 112 120 115 127 118 118 146 156 146 139 133 130 127 127 126 126 124 121 122 122 126 130 127 128 130 131 132 135 136 136 135 136 138 139 141 143 144 145 148 149 148
128 81 129 149 132 128 119 106 102 101 112 112 97 120 146 146 131 123 121 117 126 128 129 137 137 135 132 128 131 128 129 130 131 135 141 137 130 133 137 145 147 147 148 149 151 155 159 162 160
127 136 181 174 147 136 127 121 118 107 107 103 106 118 135 133 129 130 135 138 138 139 150 150 151 151 148 147 125 116 122 115 114 118 132 130 133 142 145 150 151 151 151 153 158 159 161 155 128
145 156 162 139 132 129 125 121 112 120 125 139 140 145 145 133 130 134 139 145 148 148 144 143 148 148 141 127 128 125 118 114 114 119 125 126 123 130 134 134 144 143 146 144 144 148 138 134 135
122 140 137 131 124 124 126 124 117 128 148 150 146 148 145 137 139 142 143 144 139 139 144 144 144 133 127 123 129 132 130 127 128 127 129 125 121 122 130 133 137 133 131 135 140 137 140 141 140
97 97 103 114 115 121 118 124 126 131 141 142 142 144 144 142 144 146 145 143 139 143 143 144 141 134 130 127 135 135 139 134 133 128 131 130 129 133 135 137 135 142 139 143 148 147 147 146 136
127 104 97 108 113 123 122 125 117 144 145 146 148 150 151 150 150 144 140 142 147 147 146 140 133 133 126 122 122 125 129 127 119 127 133 132 133 136 132 132 136 148 156 156 155 154 142 137 128
92 88 68 105 114 123 113 108 143 154 151 151 156 156 156 156 155 154 156 154 153 149 150 148 145 136 127 124 124 121 125 127 126 130 125 129 137 139 131 128 131 151 150 135 122 114 113 119 116
64 74 79 255 114 129 109 150 169 159 153 157 161 162 161 162 164 161 158 156 153 148 149 154 148 135 129 126 125 121 126 128 135 131 125 129 137 136 127 127 140 152 129 122 121 114 107 104 103
27 109 194 293 142 139 108 163 181 167 157 162 166 166 164 164 166 166 163 159 155 152 151 149 140 143 139 129 124 118 118 123 130 127 127 122 128 133 131 140 146 122 109 116 133 115 122 118 108
210 186 203 210 218 127 124 175 171 176 166 168 168 166 169 169 175 170 164 157 151 148 149 150 147 150 141 121 105 96 94 107 123 130 138 134 133 131 128 133 127 115 110 105 109 118 115 124 123
175 174 188 216 184 118 153 182 186 182 175 172 172 172 174 175 175 168 163 158 151 148 150 153 152 156 144 129 128 128 138 139 133 149 144 146 143 132 130 135 136 136 130 133 126 121 109 102 113
166 175 196 221 161 128 160 199 199 191 187 179 174 177 179 173 169 168 166 162 162 162 161 159 160 163 162 157 154 156 154 159 159 156 145 160 157 158 152 146 146 136 130 126 122 123 120 126 134
193 181 189 174 109 74 96 353 236 229 189 182 181 179 178 177 175 174 172 169 166 169 171 169 169 168 168 159 137 118 91 73 83 119 159 178 160 153 145 146 142 138 141 151 151 142 138 151 191
231 208 175 161 122 157 137 179 254 222 214 199 191 187 184 182 178 177 175 172 174 175 175 171 170 168 170 159 149 149 151 157 182 174 175 165 150 154 148 138 142 140 139 149 165 151 151 149 179
214 179 142 144 122 84 44 120 259 200 208 208 198 192 189 184 180 178 178 175 173 170 172 175 168 171 172 163 156 152 151 163 159 141 145 154 136 138 135 136 139 137 140 154 146 137 146 155 165
158 84 62 61 74 50 243 159 249 209 204 195 194 190 186 181 176 174 172 164 164 166 165 166 165 173 171 162 159 159 160 158 149 155 160 172 170 111 125 137 139 142 143 157 165 159 152 156 156
99 96 53 12 30 247 253 188 243 230 203 188 188 188 185 182 175 171 169 168 167 167 168 169 167 174 173 167 170 171 170 165 166 170 170 167 164 176 196 166 158 157 170 174 167 160 172 170 166
194 140 154 185 200 247 302 239 257 239 208 180 176 177 178 176 176 174 174 174 172 173 171 169 171 174 175 173 176 175 173 168 171 175 169 169 175 190 186 171 166 163 165 170 155 157 186 173 181
167 169 165 139 140 121 279 288 306 5 134 136 144 155 174 178 175 176 175 176 174 173 173 171 171 173 180 182 176 175 174 172 173 174 167 167 176 180 175 168 165 168 165 163 153 149 176 162 184
163 156 100 115 142 167 249 252 239 227 182 176 169 169 174 172 171 174 175 177 175 173 170 167 170 177 180 181 182 181 177 173 169 163 168 173 181 178 161 157 161 162 160 148 139 150 156 131 196
204 112 111 120 148 149 192 255 223 193 179 164 174 177 169 168 173 173 173 175 170 165 166 169 174 174 179 183 181 173 172 171 165 168 175 174 168 165 167 166 157 147 141 140 134 149 148 142 159
184 173 141 144 195 154 159 254 250 186 175 162 162 163 164 168 167 163 164 167 168 169 169 171 174 177 181 179 174 175 170 164 169 177 176 167 163 166 169 160 153 156 150 144 148 157 142 142 154